Date String (YYYY-MM-DD hh:mm:ss) UTC,Instrument flags,absolute air pressure of the measurement (hPa),sample flow rate (lpm),inlet stack bypass flow (lpm),air temperature of the measurement (°C),ambient temperature measured by the external sensor (°C),aerosol sample conditioner tube jacket temperature (°C),OPC LED temperature (°C),internal box temperature (°C),relative humidity of the measurement (%),span deviation,mass concentration of particles derived from Lorenz-Mie calculation of OPC scattering (μg/m³),mass concentration of particles derived from Lorenz-Mie calculation of OPC scattering (μg/m³),mass concentration of particles derived from Lorenz-Mie calculation of OPC scattering (μg/m³)
DateTimeUTC,F1_M11,P_M11,Q1_M11,Q2_M11,T1_M11,T2_M11,T3_M11,T4_M11,T5_M11,U1_M11,ZSPAN_M11,X0_M11,X2_M11,X1_M11
2024-05-22 00:00:00,SystemResetWarning,0826.6,5.00,000.00,027.5,026.7,000.0,035.9,029.3,014.4,0000.0,0010.25,0003.82,0003.42
2024-05-22 00:01:00,SystemResetWarning,0826.8,5.01,000.00,027.5,026.8,000.0,035.9,029.3,014.7,0000.0,0010.36,0003.67,0003.29
2024-05-22 00:02:00,SystemResetWarning,0826.7,5.01,000.00,027.5,026.8,000.0,035.9,029.3,014.4,0000.0,0010.11,0003.51,0003.12
2024-05-22 00:03:00,SystemResetWarning,0826.6,4.99,000.00,027.5,026.8,000.0,035.9,029.3,014.5,0000.0,0009.75,0003.36,0002.89
2024-05-22 00:04:00,SystemResetWarning,0826.6,4.99,000.00,027.5,026.7,000.0,035.9,029.3,014.1,0000.0,0009.41,0003.16,0002.57
2024-05-22 00:05:00,SystemResetWarning,0826.6,4.99,000.00,027.5,026.8,000.0,035.9,029.3,013.9,0000.0,0009.01,0002.89,0002.26
2024-05-22 00:06:00,SystemResetWarning,0826.6,5.00,000.00,027.5,026.7,000.0,035.9,029.3,013.6,0000.0,0007.86,0002.51,0001.94
2024-05-22 00:07:00,SystemResetWarning,0826.6,5.00,000.00,027.5,026.7,000.0,035.9,029.3,013.9,0000.0,0006.83,0002.19,0001.65
2024-05-22 00:08:00,SystemResetWarning,0826.5,5.00,000.00,027.5,026.7,000.0,035.9,029.3,013.5,0000.0,0006.13,0001.90,0001.38
2024-05-22 00:09:00,SystemResetWarning,0826.4,5.00,000.00,027.5,026.7,000.0,035.9,029.3,013.3,0000.0,0005.43,0001.80,0001.29
2024-05-22 00:10:00,SystemResetWarning,0826.5,5.00,000.00,027.5,026.7,000.0,035.9,029.3,013.0,0000.0,0005.35,0001.75,0001.26
2024-05-22 00:11:00,SystemResetWarning,0826.5,5.00,000.00,027.5,026.7,000.0,035.9,029.3,013.1,0000.0,0004.16,0001.71,0001.25
2024-05-22 00:12:00,SystemResetWarning,0826.4,5.00,000.00,027.5,026.7,000.0,035.9,029.3,013.2,0000.0,0002.72,0001.69,0001.24
2024-05-22 00:13:00,SystemResetWarning,0826.4,5.00,000.00,027.5,026.6,000.0,035.9,029.3,013.1,0000.0,0002.67,0001.66,0001.22
2024-05-22 00:14:00,SystemResetWarning,0826.6,5.00,000.00,027.5,026.6,000.0,035.9,029.3,012.8,0000.0,0002.75,0001.62,0001.20
2024-05-22 00:15:00,SystemResetWarning,0826.6,5.00,000.00,027.5,026.6,000.0,035.9,029.3,013.3,0000.0,0002.81,0001.61,0001.18
2024-05-22 00:16:00,SystemResetWarning,0826.6,5.00,000.00,027.5,026.6,000.0,035.9,029.3,013.4,0000.0,0004.20,0001.65,0001.17
2024-05-22 00:17:00,SystemResetWarning,0826.6,5.00,000.00,027.5,026.6,000.0,035.9,029.3,013.9,0000.0,0004.19,0001.63,0001.16
2024-05-22 00:18:00,SystemResetWarning,0826.6,5.01,000.00,027.5,026.6,000.0,035.9,029.3,013.6,0000.0,0004.16,0001.61,0001.15
2024-05-22 00:19:00,SystemResetWarning,0826.5,5.01,000.00,027.5,026.6,000.0,035.9,029.2,013.4,0000.0,0004.07,0001.58,0001.15
2024-05-22 00:20:00,SystemResetWarning,0826.5,5.00,000.00,027.4,026.6,000.0,035.9,029.2,013.1,0000.0,0004.10,0001.60,0001.16
2024-05-22 00:21:00,SystemResetWarning,0826.5,5.00,000.00,027.4,026.6,000.0,035.9,029.3,013.3,0000.0,0004.19,0001.64,0001.17
2024-05-22 00:22:00,SystemResetWarning,0826.6,5.00,000.00,027.4,026.6,000.0,035.8,029.2,013.1,0000.0,0004.44,0001.64,0001.17
2024-05-22 00:23:00,SystemResetWarning,0826.5,5.00,000.00,027.4,026.6,000.0,035.8,029.2,012.9,0000.0,0005.74,0001.67,0001.18
2024-05-22 00:24:00,SystemResetWarning,0826.5,5.00,000.00,027.4,026.6,000.0,035.8,029.2,012.9,0000.0,0005.77,0001.68,0001.18
2024-05-22 00:25:00,SystemResetWarning,0826.5,5.01,000.00,027.4,026.5,000.0,035.8,029.2,012.9,0000.0,0006.82,0001.69,0001.19
2024-05-22 00:26:00,SystemResetWarning,0826.6,5.00,000.00,027.4,026.5,000.0,035.8,029.2,012.8,0000.0,0007.44,0001.67,0001.20
2024-05-22 00:27:00,SystemResetWarning,0826.7,5.01,000.00,027.4,026.6,000.0,035.8,029.2,012.8,0000.0,0007.01,0001.64,0001.21
2024-05-22 00:28:00,SystemResetWarning,0826.7,5.00,000.00,027.4,026.5,000.0,035.8,029.2,013.0,0000.0,0007.32,0001.67,0001.22
2024-05-22 00:29:00,SystemResetWarning,0826.8,5.00,000.00,027.4,026.5,000.0,035.8,029.1,013.0,0000.0,0007.35,0001.66,0001.22
2024-05-22 00:30:00,SystemResetWarning,0826.8,5.00,000.00,027.4,026.5,000.0,035.8,029.1,013.2,0000.0,0007.49,0001.67,0001.23
2024-05-22 00:31:00,SystemResetWarning,0826.8,4.99,000.00,027.3,026.5,000.0,035.8,029.1,013.6,0000.0,0007.46,0001.63,0001.22
2024-05-22 00:32:00,SystemResetWarning,0826.8,5.00,000.00,027.3,026.5,000.0,035.8,029.1,013.5,0000.0,0007.42,0001.60,0001.22
2024-05-22 00:33:00,SystemResetWarning,0826.8,4.99,000.00,027.3,026.5,000.0,035.8,029.1,013.1,0000.0,0007.26,0001.60,0001.22
2024-05-22 00:34:00,SystemResetWarning,0826.8,4.99,000.00,027.3,026.5,000.0,035.8,029.1,012.9,0000.0,0005.74,0001.57,0001.22
2024-05-22 00:35:00,SystemResetWarning,0826.8,5.00,000.00,027.3,026.5,000.0,035.8,029.1,012.8,0000.0,0005.70,0001.55,0001.22
2024-05-22 00:36:00,SystemResetWarning,0826.8,5.01,000.00,027.3,026.5,000.0,035.8,029.1,012.8,0000.0,0004.96,0001.60,0001.24
2024-05-22 00:37:00,SystemResetWarning,0827.0,5.00,000.00,027.3,026.5,000.0,035.7,029.1,012.9,0000.0,0004.20,0001.67,0001.26
2024-05-22 00:38:00,SystemResetWarning,0827.0,4.99,000.00,027.3,026.5,000.0,035.7,029.1,013.0,0000.0,0003.53,0001.76,0001.28
2024-05-22 00:39:00,SystemResetWarning,0827.0,4.99,000.00,027.3,026.5,000.0,035.7,029.1,013.1,0000.0,0003.34,0001.78,0001.30
2024-05-22 00:40:00,SystemResetWarning,0827.0,5.00,000.00,027.3,026.5,000.0,035.7,029.1,013.3,0000.0,0003.44,0001.84,0001.32
2024-05-22 00:41:00,SystemResetWarning,0827.0,5.01,000.00,027.3,026.5,000.0,035.7,029.1,013.0,0000.0,0003.25,0001.87,0001.33
2024-05-22 00:42:00,SystemResetWarning,0826.9,5.01,000.00,027.3,026.5,000.0,035.7,029.2,013.0,0000.0,0003.49,0001.92,0001.34
2024-05-22 00:43:00,SystemResetWarning,0827.0,5.00,000.00,027.3,026.5,000.0,035.7,029.2,012.8,0000.0,0004.17,0001.96,0001.34
2024-05-22 00:44:00,SystemResetWarning,0826.9,5.00,000.00,027.3,026.5,000.0,035.7,029.1,012.8,0000.0,0004.30,0001.94,0001.34
2024-05-22 00:45:00,SystemResetWarning,0826.9,5.00,000.00,027.3,026.5,000.0,035.7,029.1,013.2,0000.0,0005.54,0001.92,0001.33
2024-05-22 00:46:00,SystemResetWarning,0826.9,5.00,000.00,027.3,026.5,000.0,035.7,029.1,012.8,0000.0,0005.65,0001.94,0001.33
2024-05-22 00:47:00,SystemResetWarning,0827.0,5.01,000.00,027.3,026.6,000.0,035.7,029.1,013.0,0000.0,0005.39,0001.87,0001.30
2024-05-22 00:48:00,SystemResetWarning,0827.0,5.00,000.00,027.3,026.6,000.0,035.7,029.1,013.6,0000.0,0005.24,0001.81,0001.29
2024-05-22 00:49:00,SystemResetWarning,0827.1,5.00,000.00,027.3,026.6,000.0,035.7,029.2,012.7,0000.0,0005.01,0001.74,0001.26
2024-05-22 00:50:00,SystemResetWarning,0827.1,5.00,000.00,027.4,026.6,000.0,035.7,029.2,012.7,0000.0,0004.93,0001.73,0001.25
2024-05-22 00:51:00,SystemResetWarning,0827.1,4.99,000.00,027.4,026.6,000.0,035.7,029.2,012.5,0000.0,0004.87,0001.66,0001.22
2024-05-22 00:52:00,SystemResetWarning,0827.1,5.01,000.00,027.4,026.6,000.0,035.7,029.2,012.2,0000.0,0005.33,0001.61,0001.19
2024-05-22 00:53:00,SystemResetWarning,0827.1,5.00,000.00,027.4,026.6,000.0,035.7,029.2,011.9,0000.0,0005.26,0001.56,0001.16
2024-05-22 00:54:00,SystemResetWarning,0827.1,5.00,000.00,027.4,026.6,000.0,035.7,029.2,012.1,0000.0,0004.85,0001.50,0001.12
2024-05-22 00:55:00,SystemResetWarning,0827.0,5.00,000.00,027.4,026.6,000.0,035.7,029.2,012.0,0000.0,0004.67,0001.47,0001.09
2024-05-22 00:56:00,SystemResetWarning,0827.0,5.00,000.00,027.4,026.6,000.0,035.7,029.2,012.0,0000.0,0003.49,0001.42,0001.05
2024-05-22 00:57:00,SystemResetWarning,0827.0,5.00,000.00,027.4,026.6,000.0,035.7,029.2,012.1,0000.0,0003.09,0001.37,0001.02
2024-05-22 00:58:00,SystemResetWarning,0827.0,4.99,000.00,027.4,026.5,000.0,035.7,029.2,012.2,0000.0,0003.09,0001.35,0000.99
2024-05-22 00:59:00,SystemResetWarning,0827.1,5.00,000.00,027.3,026.5,000.0,035.7,029.1,012.1,0000.0,0003.12,0001.32,0000.96
